User: anonymous
Location: Melbourne
(37.8170°S, 144.9670°E)
Time: 00:33:09
(UTC+10:00)
Language:

ISS - Orbit

View from above orbital plane
View from above orbital plane
View from above satellite
View from above satellite

Ground track
Ground track

The orbit data is extracted from the following two-line orbital elements,

1 25544U 98067A   14109.26176094  .00032688  00000-0  57839-3 0  1129
2 25544 051.6494 031.6095 0003487 300.9225 194.8102 15.49995285882187
Epoch (UTC): 19 April 2014 06:16:56
Eccentricity: 0.0003487
inclination: 51.6494°
perigee height: 414 km
apogee height: 419 km
right ascension of ascending node: 31.6095°
argument of perigee: 300.9225°
revolutions per day: 15.49995285
mean anomaly at epoch: 194.8102°
orbit number at epoch: 88218

The dashed part of the orbit path shows where the satellite is in the earth's shadow,  

DLR